Laida — EAVE — position and weather

sailwx.info

Track history (hours):
 
Tides and Currents Weather Stations Pressure Air Temp Water Temp Dewpoint Dewpoint Depression Visibility Wind Speed Wind Dir Waves Ship Positions

Laida

Last reported at 2014-Oct-22 01:32 UTC. Time now 2014-Oct-22 15:27 UTC.
Position N 39°15' W 009°50'.

Length 100 m; draft 6.3 m.

Type: Cargo ship. MMSI: 224509000.

Date/timePositionNaut miles runAvg speedWind from/ knotsBaromVisibWave heightAir tempDewpointWater temp
2014-Oct-22 01:32N 39°15' W 009°50'1211.9
2014-Oct-22 00:32N 39°03' W 009°50'1211.4
2014-Oct-21 23:31N 38°51' W 009°51'1111.5
2014-Oct-21 22:32N 38°40' W 009°50'1111.3
2014-Oct-21 21:33N 38°29' W 009°47'1111.3
2014-Oct-21 20:32N 38°18' W 009°44'1111.4
2014-Oct-21 19:33N 38°07' W 009°41'1111.2
2014-Oct-21 18:33N 37°56' W 009°37'1110.9
2014-Oct-21 17:33N 37°45' W 009°34'1010.4
2014-Oct-21 16:33N 37°35' W 009°31'1110.7
2014-Oct-21 15:33N 37°25' W 009°27'1111.0
2014-Oct-21 14:33N 37°14' W 009°24'1111.1
2014-Oct-21 13:32N 37°03' W 009°22'1111.1
2014-Oct-21 12:33N 36°53' W 009°18'1110.9
2014-Oct-21 11:33N 36°45' W 009°09'3711.0
2014-Oct-21 08:13N 36°35' W 008°24'711.4
2014-Oct-21 07:34N 36°33' W 008°15'1211.4
2014-Oct-21 06:33N 36°30' W 008°02'3911.8
2014-Oct-21 03:15N 36°18' W 007°15'8412.2
2014-Oct-20 20:23N 35°58' W 005°35'910.7
2014-Oct-20 19:33N 36°01' W 005°24'23111.4
2014-Oct-19 23:11N 36°35' W 000°41'3812.1
2014-Oct-19 20:05N 36°39' E 000°06'611.8
2014-Oct-19 19:32N 36°40' E 000°14'1212.1
2014-Oct-19 18:33N 36°41' E 000°29'  
Track history (hours):
 
Tides and Currents Weather Stations Pressure Air Temp Water Temp Dewpoint Dewpoint Depression Visibility Wind Speed Wind Dir Waves Ship Positions

Laida

Last reported at 2014-Oct-22 01:32 UTC. Time now 2014-Oct-22 15:27 UTC.
Position N 39°15' W 009°50'.

Length 100 m; draft 6.3 m.

Type: Cargo ship. MMSI: 224509000.

Date/timePositionNaut miles runAvg speedWind from/ knotsBaromVisibWave heightAir tempDewpointWater temp
2014-Oct-22 01:32N 39°15' W 009°50'1211.9
2014-Oct-22 00:32N 39°03' W 009°50'1211.4
2014-Oct-21 23:31N 38°51' W 009°51'1111.5
2014-Oct-21 22:32N 38°40' W 009°50'1111.3
2014-Oct-21 21:33N 38°29' W 009°47'1111.3
2014-Oct-21 20:32N 38°18' W 009°44'1111.4
2014-Oct-21 19:33N 38°07' W 009°41'1111.2
2014-Oct-21 18:33N 37°56' W 009°37'1110.9
2014-Oct-21 17:33N 37°45' W 009°34'1010.4
2014-Oct-21 16:33N 37°35' W 009°31'1110.7
2014-Oct-21 15:33N 37°25' W 009°27'1111.0
2014-Oct-21 14:33N 37°14' W 009°24'1111.1
2014-Oct-21 13:32N 37°03' W 009°22'1111.1
2014-Oct-21 12:33N 36°53' W 009°18'1110.9
2014-Oct-21 11:33N 36°45' W 009°09'3711.0
2014-Oct-21 08:13N 36°35' W 008°24'711.4
2014-Oct-21 07:34N 36°33' W 008°15'1211.4
2014-Oct-21 06:33N 36°30' W 008°02'3911.8
2014-Oct-21 03:15N 36°18' W 007°15'8412.2
2014-Oct-20 20:23N 35°58' W 005°35'910.7
2014-Oct-20 19:33N 36°01' W 005°24'23111.4
2014-Oct-19 23:11N 36°35' W 000°41'3812.1
2014-Oct-19 20:05N 36°39' E 000°06'611.8
2014-Oct-19 19:32N 36°40' E 000°14'1212.1
2014-Oct-19 18:33N 36°41' E 000°29'  

Dump ship's entire track history